• In Hungary
  • List of Countries
  • For 7 days
  • Water Temperature
  • Satellite Maps
  • Weather Map
  • News
  • Weather Widgets
  • user-avatar
    Login

    Hourly Weather Sevan

    Today, 22 November, Wednesday

    Time Temperature Precipitation Wind Pressure Humidity
    00:00 +5°C° 0 mm 3 mps 632 mmHg 81%
    01:00 +5°C° 0.2 mm 3 mps 632 mmHg 82%
    02:00 +6°C° 0.2 mm 2 mps 632 mmHg 82%
    03:00 +5°C° 0 mm 3 mps 633 mmHg 83%
    04:00 +5°C° 1.1 mm 3 mps 633 mmHg 83%
    05:00 +4°C° 1.1 mm 3 mps 633 mmHg 84%
    06:00 +4°C° 1.1 mm 2 mps 633 mmHg 84%
    07:00 +3°C° 0.7 mm 3 mps 632 mmHg 83%
    08:00 +3°C° 0.7 mm 3 mps 632 mmHg 81%
    09:00 +2°C° 0.7 mm 3 mps 632 mmHg 79%
    10:00 +3°C° 0.6 mm 3 mps 632 mmHg 78%
    11:00 +3°C° 0.6 mm 3 mps 632 mmHg 76%
    12:00 +3°C° 0.6 mm 3 mps 632 mmHg 74%
    13:00 +3°C° 0.3 mm 3 mps 633 mmHg 72%
    14:00 +2°C° 0.3 mm 3 mps 633 mmHg 71%
    15:00 +2°C° 0.3 mm 3 mps 633 mmHg 70%
    16:00 +2°C° 0.2 mm 2 mps 633 mmHg 71%
    17:00 +2°C° 0.2 mm 2 mps 634 mmHg 72%
    18:00 +1°C° 0.2 mm 2 mps 634 mmHg 73%
    19:00 -1°C° 0.1 mm 2 mps 634 mmHg 73%
    20:00 +1°C° 0.1 mm 1 mps 635 mmHg 73%
    21:00 0°C° 0.1 mm 1 mps 635 mmHg 74%
    22:00 0°C° 0.1 mm 1 mps 635 mmHg 73%
    23:00 0°C° 0.1 mm 1 mps 635 mmHg 73%

    Tomorrow, 23 November, Thursday

    Time Temperature Precipitation Wind Pressure Humidity
    00:00 -1°C° 0.1 mm 1 mps 635 mmHg 73%
    01:00 -1°C° 0 mm 1 mps 635 mmHg 72%
    02:00 -1°C° 0 mm 1 mps 635 mmHg 71%
    03:00 -1°C° 0 mm 1 mps 635 mmHg 70%
    04:00 -2°C° 0 mm 1 mps 635 mmHg 69%
    05:00 -4°C° 0 mm 2 mps 636 mmHg 68%
    06:00 -5°C° 0 mm 2 mps 636 mmHg 67%
    07:00 -4°C° 0 mm 2 mps 636 mmHg 68%
    08:00 -4°C° 0 mm 2 mps 636 mmHg 68%
    09:00 -4°C° 0 mm 3 mps 637 mmHg 68%
    10:00 -2°C° 0.1 mm 3 mps 637 mmHg 66%
    11:00 -2°C° 0.1 mm 3 mps 636 mmHg 64%
    12:00 -2°C° 0.1 mm 4 mps 636 mmHg 62%
    13:00 -1°C° 0.1 mm 3 mps 636 mmHg 62%
    14:00 -1°C° 0.1 mm 3 mps 636 mmHg 62%
    15:00 -1°C° 0.1 mm 3 mps 636 mmHg 62%
    16:00 -2°C° 0.2 mm 2 mps 637 mmHg 66%
    17:00 -2°C° 0.2 mm 2 mps 637 mmHg 70%
    18:00 -1°C° 0.2 mm 1 mps 637 mmHg 74%
    19:00 -1°C° 0.3 mm 1 mps 638 mmHg 75%
    20:00 -1°C° 0.3 mm 1 mps 638 mmHg 77%
    21:00 -1°C° 0.3 mm 1 mps 638 mmHg 78%
    22:00 -2°C° 0.3 mm 1 mps 638 mmHg 80%
    23:00 -2°C° 0.3 mm 1 mps 638 mmHg 81%

    Day after tomorrow, 24 November, Friday

    Time Temperature Precipitation Wind Pressure Humidity
    00:00 -3°C° 0.3 mm 1 mps 638 mmHg 83%
    01:00 -3°C° 0.1 mm 1 mps 638 mmHg 82%
    02:00 -3°C° 0.1 mm 1 mps 638 mmHg 81%
    03:00 -4°C° 0.1 mm 1 mps 638 mmHg 81%
    04:00 -4°C° 0 mm 1 mps 638 mmHg 79%
    05:00 -4°C° 0 mm 1 mps 638 mmHg 78%
    06:00 -4°C° 0 mm 1 mps 638 mmHg 77%
    07:00 -4°C° 0 mm 1 mps 639 mmHg 74%
    08:00 -4°C° 0 mm 1 mps 639 mmHg 72%
    09:00 -3°C° 0 mm 1 mps 640 mmHg 69%
    10:00 -5°C° 0 mm 2 mps 640 mmHg 65%
    11:00 -4°C° 0 mm 2 mps 640 mmHg 61%
    12:00 -3°C° 0 mm 2 mps 640 mmHg 57%
    13:00 -4°C° 0 mm 2 mps 640 mmHg 58%
    14:00 -2°C° 0 mm 1 mps 640 mmHg 59%
    15:00 -2°C° 0 mm 1 mps 639 mmHg 59%
    16:00 -3°C° 0 mm 1 mps 640 mmHg 62%
    17:00 -4°C° 0 mm 1 mps 640 mmHg 64%
    18:00 -7°C° 0 mm 1 mps 640 mmHg 66%
    19:00 -7°C° 0 mm 1 mps 640 mmHg 67%
    20:00 -7°C° 0 mm 1 mps 640 mmHg 67%
    21:00 -7°C° 0 mm 1 mps 641 mmHg 67%
    22:00 -7°C° 0 mm 1 mps 641 mmHg 68%
    23:00 -7°C° 0 mm 1 mps 641 mmHg 69%

    25 November, Saturday

    Time Temperature Precipitation Wind Pressure Humidity
    00:00 -7°C° 0 mm 1 mps 641 mmHg 70%
    01:00 -7°C° 0.1 mm 1 mps 641 mmHg 71%
    02:00 -7°C° 0.1 mm 1 mps 641 mmHg 72%
    03:00 -7°C° 0.1 mm 1 mps 642 mmHg 73%
    04:00 -8°C° 0 mm 1 mps 642 mmHg 73%
    05:00 -8°C° 0 mm 1 mps 642 mmHg 73%
    06:00 -8°C° 0 mm 1 mps 642 mmHg 74%
    07:00 -7°C° 0 mm 1 mps 643 mmHg 72%
    08:00 -6°C° 0 mm 1 mps 644 mmHg 70%
    09:00 -6°C° 0 mm 1 mps 644 mmHg 68%
    10:00 -4°C° 0 mm 1 mps 644 mmHg 65%
    11:00 -3°C° 0 mm 1 mps 644 mmHg 62%
    12:00 -2°C° 0 mm 1 mps 644 mmHg 59%
    13:00 -2°C° 0 mm 1 mps 644 mmHg 59%
    14:00 -2°C° 0 mm 1 mps 644 mmHg 60%
    15:00 -2°C° 0 mm 1 mps 644 mmHg 60%
    16:00 -4°C° 0 mm 1 mps 645 mmHg 62%
    17:00 -6°C° 0 mm 1 mps 645 mmHg 64%
    18:00 -8°C° 0 mm 2 mps 645 mmHg 66%
    19:00 -8°C° 0 mm 1 mps 645 mmHg 66%
    20:00 -8°C° 0 mm 1 mps 646 mmHg 66%
    21:00 -8°C° 0 mm 1 mps 646 mmHg 65%
    22:00 -8°C° 0 mm 1 mps 646 mmHg 65%
    23:00 -9°C° 0 mm 1 mps 646 mmHg 65%

    26 November, Sunday

    Time Temperature Precipitation Wind Pressure Humidity
    00:00 -9°C° 0 mm 1 mps 646 mmHg 65%
    01:00 -9°C° 0 mm 1 mps 646 mmHg 64%
    02:00 -9°C° 0 mm 1 mps 646 mmHg 64%
    03:00 -9°C° 0 mm 1 mps 646 mmHg 63%
    04:00 -9°C° 0 mm 1 mps 646 mmHg 62%
    05:00 -9°C° 0 mm 1 mps 646 mmHg 62%
    06:00 -9°C° 0 mm 1 mps 645 mmHg 61%
    07:00 -7°C° 0 mm 1 mps 646 mmHg 60%
    08:00 -6°C° 0 mm 1 mps 646 mmHg 59%
    09:00 -4°C° 0 mm 1 mps 647 mmHg 58%
    10:00 -3°C° 0 mm 1 mps 646 mmHg 55%
    11:00 -3°C° 0 mm 2 mps 646 mmHg 52%
    12:00 -2°C° 0 mm 2 mps 646 mmHg 49%
    13:00 -2°C° 0 mm 2 mps 646 mmHg 50%
    14:00 -2°C° 0 mm 2 mps 645 mmHg 51%
    15:00 0°C° 0 mm 1 mps 645 mmHg 52%
    16:00 -2°C° 0 mm 1 mps 645 mmHg 51%
    17:00 -3°C° 0 mm 1 mps 645 mmHg 51%
    18:00 -4°C° 0 mm 1 mps 644 mmHg 50%
    19:00 -6°C° 0 mm 1 mps 645 mmHg 49%
    20:00 -6°C° 0 mm 1 mps 645 mmHg 47%
    21:00 -6°C° 0 mm 1 mps 645 mmHg 45%
    22:00 -6°C° 0 mm 1 mps 645 mmHg 44%
    23:00 -6°C° 0 mm 1 mps 645 mmHg 43%

    27 November, Monday

    Time Temperature Precipitation Wind Pressure Humidity
    00:00 -6°C° 0 mm 1 mps 645 mmHg 43%
    01:00 -6°C° 0 mm 1 mps 644 mmHg 43%
    02:00 -6°C° 0 mm 1 mps 644 mmHg 43%
    03:00 -6°C° 0 mm 1 mps 644 mmHg 44%
    04:00 -6°C° 0 mm 1 mps 644 mmHg 44%
    05:00 -6°C° 0 mm 1 mps 644 mmHg 44%
    06:00 -6°C° 0 mm 1 mps 644 mmHg 44%
    07:00 -4°C° 0 mm 1 mps 644 mmHg 45%
    08:00 -3°C° 0 mm 1 mps 645 mmHg 45%
    09:00 -1°C° 0 mm 1 mps 645 mmHg 46%
    10:00 0°C° 0 mm 1 mps 645 mmHg 45%
    11:00 +1°C° 0 mm 2 mps 644 mmHg 44%
    12:00 +2°C° 0 mm 2 mps 644 mmHg 43%
    13:00 +2°C° 0 mm 2 mps 644 mmHg 43%
    14:00 +2°C° 0 mm 2 mps 644 mmHg 43%
    15:00 +2°C° 0 mm 2 mps 643 mmHg 43%
    16:00 -1°C° 0 mm 2 mps 643 mmHg 42%
    17:00 -2°C° 0 mm 2 mps 643 mmHg 40%
    18:00 -4°C° 0 mm 2 mps 643 mmHg 38%
    19:00 -4°C° 0 mm 2 mps 643 mmHg 38%
    20:00 -4°C° 0 mm 2 mps 643 mmHg 37%
    21:00 -5°C° 0 mm 2 mps 643 mmHg 37%
    22:00 -5°C° 0 mm 2 mps 643 mmHg 37%
    23:00 -5°C° 0 mm 2 mps 643 mmHg 38%
    Show more